Torna al catalogo

STARLINK-30249

AttivoComunicazioniVLEO
NORAD 57618·PAYLOAD·🇺🇸 United States

Lanciato Aug 11, 2023 da Cape Canaveral Space Force Station

Loading…

Prossimi Passaggi (prossime 24 ore)

TLE

AggiornatoSource: CelesTrak SupGP

Epoca: Sep 14, 2026, 21:00 UTC

1 57618C 23119S   26257.87548611 -.00011138  00000+0 -40345-3 0  2576
2 57618  43.0017  92.9078 0001484 271.5574  62.0409 15.27580597    18

Traccia STARLINK-30249 in tempo reale con AllMySat

Download on the App Store